Location: Newark
(33.6333°S, 78.8500°W)
Time: 09:34:41
(UTC+00:00)

Tiros 1 - Pass Details

Date: 20 October 2019
Orbit: 630 x 664 km, 48.4° (Epoch: 14 November)

Event Time Altitude Azimuth Distance (km) Brightness Sun altitude
Rises 16:59:38 0° 335° (NNW) 2,940 10.8 66.8°
Reaches altitude 10° 17:02:10 10° 345° (NNW) 2,032 10.2 66.8°
Maximum altitude 17:06:18 32° 47° (NE) 1,111 9.2 66.7°
Drops below altitude 10° 17:10:27 10° 109° (ESE) 2,033 9.7 66.7°
Sets 17:12:58 0° 119° (ESE) 2,944 10.4 66.6°
